User: anonymous   Login
Location: Ida
(33.5751°N, 96.4900°W)
Time: 20:28:57
(UTC+00:00)
Language:

BlueWalker 3 - Orbit

View from above orbital plane
View from above orbital plane
View from above satellite
View from above satellite

Ground track
Ground track

The orbit data is extracted from the following two-line orbital elements,

1 53807U 22111AL  25192.40382019  .00003555  00000-0  12007-3 0  9997
2 53807  53.2300 188.1233 0006423 196.0824 163.9976 15.33370368157833
Epoch (UTC): 11 July 2025 09:41:30
Eccentricity: 0.0006423
inclination: 53.2300°
perigee height: 461 km
apogee height: 470 km
right ascension of ascending node: 188.1233°
argument of perigee: 196.0824°
revolutions per day: 15.33370368
mean anomaly at epoch: 163.9976°
orbit number at epoch: 15783

The dashed part of the orbit path shows where the satellite is in the earth's shadow,  

DLR